Satellite-Ground Cal/Val Site Overpasses Predictions

Prediction of Satellite NPP Overpassing Cal/Val Site: Antarctic Dome C

Ground Cal/Val Site Location: Latitude: -75.10, Longitude: 123.35; Satellite-Ground Site NADIR distance within 100 km.

Table of predicted overpasses for the next 14.0 days since TLE Epoch: 6/12/2021
Interval Starting Time Ending Time Minimum Distance Time Minimum Distance (km)
1 06/12/2021 14:48:22 06/12/2021 14:48:51 06/12/2021 14:48:37 14.79
2 06/14/2021 07:31:13 06/14/2021 07:31:43 06/14/2021 07:31:28 1.32
3 06/17/2021 14:54:42 06/17/2021 14:55:11 06/17/2021 14:54:56 22.31
4 06/18/2021 14:36:01 06/18/2021 14:36:16 06/18/2021 14:36:08 84.84
5 06/19/2021 07:37:33 06/19/2021 07:38:01 06/19/2021 07:37:47 34.89
6 06/20/2021 07:18:49 06/20/2021 07:19:08 06/20/2021 07:18:58 75.10
7 06/22/2021 15:01:05 06/22/2021 15:01:28 06/22/2021 15:01:16 59.41
8 06/23/2021 14:42:14 06/23/2021 14:42:39 06/23/2021 14:42:27 49.73
9 06/24/2021 07:43:56 06/24/2021 07:44:17 06/24/2021 07:44:06 70.29
